Hourly Weather Dziad

Today, 9 May, Sunday

Time Temperature Precipitation Wind Pressure Humidity
00:00 +3°C° 0 mm 2 mps 748 mmHg 86%
01:00 +3°C° 0 mm 2 mps 748 mmHg 86%
02:00 +2°C° 0 mm 2 mps 748 mmHg 86%
03:00 +2°C° 0 mm 2 mps 749 mmHg 86%
04:00 +2°C° 0 mm 2 mps 749 mmHg 86%
05:00 +2°C° 0 mm 2 mps 749 mmHg 86%
06:00 +4°C° 0 mm 2 mps 749 mmHg 80%
07:00 +6°C° 0 mm 2 mps 749 mmHg 74%
08:00 +8°C° 0 mm 2 mps 749 mmHg 68%
09:00 +10°C° 0 mm 3 mps 749 mmHg 63%
10:00 +12°C° 0 mm 3 mps 749 mmHg 57%
11:00 +13°C° 0 mm 4 mps 749 mmHg 52%
12:00 +14°C° 0 mm 4 mps 749 mmHg 50%
13:00 +15°C° 0 mm 4 mps 749 mmHg 48%
14:00 +17°C° 0 mm 4 mps 748 mmHg 46%
15:00 +17°C° 0 mm 4 mps 748 mmHg 49%
16:00 +17°C° 0 mm 4 mps 748 mmHg 52%
17:00 +17°C° 0 mm 4 mps 748 mmHg 56%
18:00 +14°C° 0 mm 3 mps 748 mmHg 63%
19:00 +13°C° 0 mm 3 mps 748 mmHg 70%
20:00 +11°C° 0 mm 3 mps 748 mmHg 77%
21:00 +10°C° 0 mm 3 mps 748 mmHg 79%
22:00 +10°C° 0 mm 3 mps 748 mmHg 80%
23:00 +8°C° 0 mm 4 mps 748 mmHg 82%

Tomorrow, 10 May, Monday

Time Temperature Precipitation Wind Pressure Humidity
00:00 +8°C° 0 mm 4 mps 748 mmHg 82%
01:00 +7°C° 0 mm 4 mps 748 mmHg 82%
02:00 +7°C° 0 mm 4 mps 748 mmHg 81%
03:00 +6°C° 0 mm 4 mps 748 mmHg 81%
04:00 +6°C° 0 mm 4 mps 748 mmHg 81%
05:00 +6°C° 0 mm 4 mps 748 mmHg 81%
06:00 +7°C° 0 mm 4 mps 748 mmHg 77%
07:00 +9°C° 0 mm 5 mps 748 mmHg 72%
08:00 +11°C° 0 mm 6 mps 748 mmHg 67%
09:00 +14°C° 0 mm 6 mps 748 mmHg 64%
10:00 +15°C° 0 mm 7 mps 748 mmHg 60%
11:00 +17°C° 0 mm 7 mps 747 mmHg 57%
12:00 +18°C° 0 mm 7 mps 747 mmHg 56%
13:00 +20°C° 0 mm 7 mps 747 mmHg 54%
14:00 +20°C° 0 mm 7 mps 747 mmHg 53%
15:00 +20°C° 0 mm 7 mps 747 mmHg 57%
16:00 +20°C° 0 mm 7 mps 746 mmHg 60%
17:00 +20°C° 0 mm 7 mps 746 mmHg 64%
18:00 +19°C° 0 mm 6 mps 746 mmHg 68%
19:00 +16°C° 0 mm 6 mps 747 mmHg 72%
20:00 +15°C° 0 mm 5 mps 747 mmHg 75%
21:00 +14°C° 0 mm 5 mps 747 mmHg 77%
22:00 +13°C° 0 mm 5 mps 747 mmHg 79%
23:00 +12°C° 0 mm 5 mps 747 mmHg 81%

Day after tomorrow, 11 May, Tuesday

Time Temperature Precipitation Wind Pressure Humidity
00:00 +12°C° 0 mm 5 mps 747 mmHg 82%
01:00 +10°C° 0 mm 5 mps 747 mmHg 83%
02:00 +9°C° 0 mm 5 mps 747 mmHg 84%
03:00 +9°C° 0 mm 5 mps 746 mmHg 83%
04:00 +9°C° 0 mm 5 mps 746 mmHg 83%
05:00 +8°C° 0 mm 6 mps 746 mmHg 82%
06:00 +9°C° 0 mm 6 mps 746 mmHg 79%
07:00 +11°C° 0 mm 7 mps 746 mmHg 75%
08:00 +12°C° 0 mm 7 mps 746 mmHg 72%
09:00 +13°C° 0 mm 8 mps 746 mmHg 67%
10:00 +16°C° 0 mm 8 mps 746 mmHg 63%
11:00 +18°C° 0 mm 8 mps 746 mmHg 59%
12:00 +18°C° 0 mm 8 mps 746 mmHg 57%
13:00 +20°C° 0 mm 8 mps 745 mmHg 56%
14:00 +21°C° 0 mm 8 mps 745 mmHg 54%
15:00 +20°C° 0 mm 8 mps 745 mmHg 57%
16:00 +20°C° 0 mm 8 mps 745 mmHg 59%
17:00 +20°C° 0 mm 7 mps 744 mmHg 61%
18:00 +17°C° 0 mm 7 mps 744 mmHg 63%
19:00 +16°C° 0 mm 6 mps 744 mmHg 65%
20:00 +14°C° 0 mm 6 mps 744 mmHg 66%
21:00 +13°C° 0 mm 6 mps 744 mmHg 67%
22:00 +13°C° 0 mm 6 mps 744 mmHg 67%
23:00 +11°C° 0 mm 6 mps 744 mmHg 68%

12 May, Wednesday

Time Temperature Precipitation Wind Pressure Humidity
00:00 +11°C° 0 mm 6 mps 743 mmHg 72%
01:00 +10°C° 0 mm 6 mps 743 mmHg 76%
02:00 +10°C° 0 mm 6 mps 743 mmHg 80%
03:00 +10°C° 0 mm 6 mps 743 mmHg 83%
04:00 +10°C° 0 mm 6 mps 742 mmHg 85%
05:00 +9°C° 0 mm 6 mps 742 mmHg 87%
06:00 +10°C° 0 mm 6 mps 742 mmHg 85%
07:00 +12°C° 0 mm 7 mps 742 mmHg 83%
08:00 +14°C° 0 mm 7 mps 742 mmHg 81%
09:00 +15°C° 0 mm 7 mps 742 mmHg 74%
10:00 +16°C° 0 mm 8 mps 742 mmHg 68%
11:00 +17°C° 0 mm 8 mps 742 mmHg 61%
12:00 +17°C° 0 mm 8 mps 741 mmHg 58%
13:00 +18°C° 0 mm 8 mps 741 mmHg 55%
14:00 +18°C° 0 mm 8 mps 741 mmHg 52%
15:00 +17°C° 0 mm 7 mps 741 mmHg 56%
16:00 +17°C° 0 mm 7 mps 740 mmHg 59%
17:00 +16°C° 0 mm 7 mps 740 mmHg 63%
18:00 +15°C° 0 mm 6 mps 740 mmHg 66%
19:00 +13°C° 0 mm 6 mps 740 mmHg 70%
20:00 +12°C° 0 mm 5 mps 740 mmHg 73%
21:00 +10°C° 0 mm 5 mps 739 mmHg 75%
22:00 +10°C° 0 mm 5 mps 739 mmHg 78%
23:00 +9°C° 0 mm 5 mps 739 mmHg 80%

13 May, Thursday

Time Temperature Precipitation Wind Pressure Humidity
00:00 +8°C° 0 mm 5 mps 739 mmHg 81%
01:00 +8°C° 0 mm 5 mps 739 mmHg 82%
02:00 +8°C° 0 mm 5 mps 739 mmHg 84%
03:00 +7°C° 0 mm 5 mps 738 mmHg 85%
04:00 +7°C° 0 mm 5 mps 738 mmHg 87%
05:00 +6°C° 0 mm 5 mps 738 mmHg 89%
06:00 +7°C° 0 mm 6 mps 738 mmHg 85%
07:00 +8°C° 0 mm 6 mps 738 mmHg 82%
08:00 +9°C° 0 mm 6 mps 738 mmHg 78%
09:00 +10°C° 0 mm 6 mps 738 mmHg 73%
10:00 +12°C° 0 mm 5 mps 737 mmHg 69%
11:00 +13°C° 0 mm 5 mps 737 mmHg 65%
12:00 +13°C° 0.1 mm 4 mps 737 mmHg 65%
13:00 +13°C° 0.1 mm 4 mps 737 mmHg 66%
14:00 +13°C° 0.1 mm 3 mps 737 mmHg 67%
15:00 +13°C° 0.3 mm 3 mps 737 mmHg 69%
16:00 +14°C° 0.3 mm 2 mps 737 mmHg 72%
17:00 +14°C° 0.3 mm 1 mps 736 mmHg 74%
18:00 +13°C° 0.4 mm 1 mps 736 mmHg 79%
19:00 +12°C° 0.4 mm 2 mps 737 mmHg 85%
20:00 +10°C° 0.4 mm 2 mps 737 mmHg 90%
21:00 +10°C° 0 mm 2 mps 736 mmHg 92%
22:00 +10°C° 0 mm 2 mps 736 mmHg 93%
23:00 +10°C° 0 mm 2 mps 736 mmHg 94%

14 May, Friday

Time Temperature Precipitation Wind Pressure Humidity
00:00 +10°C° 0 mm 2 mps 736 mmHg 95%
01:00 +9°C° 0 mm 2 mps 737 mmHg 96%
02:00 +9°C° 0 mm 2 mps 737 mmHg 96%
03:00 +10°C° 0.2 mm 1 mps 737 mmHg 96%
04:00 +10°C° 0.2 mm 1 mps 737 mmHg 97%
05:00 +11°C° 0.2 mm 1 mps 737 mmHg 97%
06:00 +11°C° 0.2 mm 1 mps 737 mmHg 97%
07:00 +11°C° 0.2 mm 1 mps 737 mmHg 97%
08:00 +10°C° 0.2 mm 2 mps 737 mmHg 97%
09:00 +12°C° 0.1 mm 2 mps 737 mmHg 95%
10:00 +12°C° 0.1 mm 2 mps 737 mmHg 94%
11:00 +12°C° 0.1 mm 2 mps 738 mmHg 93%
12:00 +12°C° 0 mm 3 mps 738 mmHg 91%
13:00 +12°C° 0 mm 3 mps 738 mmHg 88%
14:00 +13°C° 0 mm 3 mps 738 mmHg 86%
15:00 +13°C° 0 mm 3 mps 738 mmHg 85%
16:00 +13°C° 0 mm 3 mps 738 mmHg 83%
17:00 +13°C° 0 mm 3 mps 738 mmHg 82%
18:00 +12°C° 0 mm 3 mps 739 mmHg 86%
19:00 +12°C° 0 mm 3 mps 739 mmHg 89%
20:00 +12°C° 0 mm 2 mps 739 mmHg 93%
21:00 +12°C° 0 mm 2 mps 739 mmHg 93%
22:00 +10°C° 0 mm 2 mps 739 mmHg 94%
23:00 +10°C° 0 mm 2 mps 739 mmHg 94%
Show more